ATLAS 5 CENTAUR DEB, 43973

Orbit data source: Space-Track

ATLAS 5 CENTAUR DEB, 43973 is space debris in HEO originally from a launch on Wed, 17 Sep 2014 UTC launched from the Air Force Eastern Test Range (AFETR). Debris objects in space refer to the collection of defunct objects orbiting the Earth. Examples of debris include non-operational satellites, rocket bodies, and fragments generated from explosions, collisions, or faulty payload assembly.

Loading next visibility...
Identifier
43973, 2014-055AC
Orbit
HEO
Country
Flag of USUS
Related business
Flag of USUnited Launch Alliance/Lockheed Martin (US)
Manufacturer
Unknown
Mission
Spacecraft
Bus & Motor
Unknown
Mass
Unknown
Launch date (UTC)
2014-09-17 (11 years ago)
Launch vehicle
Unknown
Launch site
Air Force Eastern Test Range (AFETR)
Object type
Payload
Rocket body
Debris
Shape & HBR
Unknown shape, 1.1 m
Radar Cross Section
Small (<0.1 m²)

Expand to show TLE details & history
Last TLE update: 3 days ago

TLE from 3 days ago
0 ATLAS 5 CENTAUR DEB
1 43973U 14055AC  26069.68882924 -.00000063  00000-0  00000+0 0  9990
2 43973  20.9936 118.5255 5025426 217.2913  94.1245  1.92511096 52964
Epoch: 2026-03-10T16:31Z
TLE epoch observation values (Epoch: 2026-03-10T16:31:54.846Z)
Latitude
0.00002°
Longitude
62.24548°
Altitude
27,618.011 km
Speed
2.974 km/s
True Right ascension
07h 54m 21s
True Declination
0° 00' 00"
Sunlit
Object was in daylight at epoch
Visualization orbit readout
Latitude
Unknown
Longitude
Unknown
Altitude
Unknown
Speed
Unknown
Apparent Right ascension
Unknown
Apparent Declination
Unknown
Sunlit
N/A
Visualization observer readout
Local Sidereal Time
10:46:37
Azimuth
Unknown
Elevation
Unknown
Doppler factor
Unknown
Orbital elements
Apogee altitude
34,638.225 km
Perigee altitude
7,201.44 km
Semi-major axis
27,297.969 km
Eccentricity
0.50254
Inclination
20.9936°
RAAN
118.5255°
Arg. of periapsis
217.2913°
True anomaly
142.7255°
Mean anomaly
94.1245°
Eccentric anomaly
119.24741°
Mean motion
0.48122 °/min
Orbital period
748.09 mins
BSTAR
0
Loading maneuver chart data...
Computing Atmospheric mass density...

Documentation

Showing up to 5 results
|